Tiempo cada hora Dabrowica

Hoy, 25 Junio, Viernes

Tiempo Temperatura Precipitaciones Viento Presión Humedad
00:00 +20°C° 1.3 mm 1 mps 746 mmHg 94%
01:00 +20°C° 1.3 mm 1 mps 746 mmHg 95%
02:00 +19°C° 0.3 mm 1 mps 746 mmHg 95%
03:00 +19°C° 0.3 mm 1 mps 745 mmHg 95%
04:00 +19°C° 0.3 mm 1 mps 745 mmHg 95%
05:00 +20°C° 0 mm 1 mps 745 mmHg 91%
06:00 +22°C° 0 mm 1 mps 745 mmHg 88%
07:00 +23°C° 0 mm 1 mps 745 mmHg 84%
08:00 +24°C° 0 mm 1 mps 745 mmHg 80%
09:00 +25°C° 0 mm 2 mps 745 mmHg 76%
10:00 +26°C° 0 mm 3 mps 745 mmHg 72%
11:00 +25°C° 0.2 mm 3 mps 746 mmHg 76%
12:00 +25°C° 0.2 mm 4 mps 746 mmHg 80%
13:00 +23°C° 0.2 mm 5 mps 746 mmHg 84%
14:00 +23°C° 0.1 mm 5 mps 746 mmHg 83%
15:00 +22°C° 0.1 mm 5 mps 746 mmHg 82%
16:00 +22°C° 0.1 mm 4 mps 746 mmHg 81%
17:00 +22°C° 0.1 mm 4 mps 746 mmHg 83%
18:00 +21°C° 0.1 mm 3 mps 746 mmHg 84%
19:00 +21°C° 0.1 mm 3 mps 746 mmHg 86%
20:00 +20°C° 0 mm 3 mps 747 mmHg 87%
21:00 +19°C° 0 mm 2 mps 747 mmHg 88%
22:00 +18°C° 0 mm 2 mps 747 mmHg 89%
23:00 +18°C° 0 mm 2 mps 747 mmHg 90%

Mañana, 26 Junio, Sábado

Tiempo Temperatura Precipitaciones Viento Presión Humedad
00:00 +17°C° 0 mm 2 mps 747 mmHg 92%
01:00 +17°C° 0 mm 2 mps 747 mmHg 93%
02:00 +17°C° 0 mm 2 mps 747 mmHg 93%
03:00 +17°C° 0 mm 2 mps 747 mmHg 92%
04:00 +18°C° 0 mm 1 mps 748 mmHg 91%
05:00 +18°C° 0 mm 2 mps 748 mmHg 87%
06:00 +19°C° 0 mm 2 mps 748 mmHg 83%
07:00 +20°C° 0 mm 2 mps 748 mmHg 79%
08:00 +21°C° 0 mm 2 mps 748 mmHg 74%
09:00 +23°C° 0 mm 2 mps 748 mmHg 68%
10:00 +24°C° 0 mm 2 mps 748 mmHg 63%
11:00 +25°C° 0.1 mm 2 mps 748 mmHg 62%
12:00 +25°C° 0.1 mm 3 mps 748 mmHg 61%
13:00 +25°C° 0.1 mm 3 mps 747 mmHg 59%
14:00 +25°C° 0.5 mm 3 mps 747 mmHg 61%
15:00 +25°C° 0.5 mm 3 mps 747 mmHg 63%
16:00 +25°C° 0.5 mm 3 mps 747 mmHg 64%
17:00 +24°C° 0.5 mm 3 mps 747 mmHg 69%
18:00 +22°C° 0.5 mm 3 mps 747 mmHg 74%
19:00 +21°C° 0.5 mm 2 mps 747 mmHg 80%
20:00 +20°C° 0 mm 2 mps 748 mmHg 82%
21:00 +19°C° 0 mm 2 mps 748 mmHg 85%
22:00 +17°C° 0 mm 2 mps 748 mmHg 87%
23:00 +17°C° 0 mm 2 mps 748 mmHg 88%

Pasado mañana, 27 Junio, Domingo

Tiempo Temperatura Precipitaciones Viento Presión Humedad
00:00 +18°C° 0 mm 1 mps 748 mmHg 89%
01:00 +16°C° 0 mm 1 mps 748 mmHg 90%
02:00 +16°C° 0 mm 1 mps 748 mmHg 90%
03:00 +16°C° 0 mm 1 mps 748 mmHg 91%
04:00 +16°C° 0 mm 1 mps 749 mmHg 91%
05:00 +18°C° 0 mm 1 mps 749 mmHg 86%
06:00 +20°C° 0 mm 1 mps 749 mmHg 81%
07:00 +21°C° 0 mm 1 mps 749 mmHg 76%
08:00 +23°C° 0 mm 1 mps 749 mmHg 70%
09:00 +24°C° 0 mm 1 mps 749 mmHg 64%
10:00 +25°C° 0 mm 1 mps 749 mmHg 58%
11:00 +26°C° 0 mm 1 mps 749 mmHg 56%
12:00 +26°C° 0 mm 2 mps 748 mmHg 53%
13:00 +27°C° 0 mm 2 mps 748 mmHg 51%
14:00 +27°C° 0 mm 2 mps 748 mmHg 52%
15:00 +27°C° 0 mm 2 mps 748 mmHg 52%
16:00 +26°C° 0 mm 2 mps 748 mmHg 53%
17:00 +25°C° 0 mm 2 mps 748 mmHg 58%
18:00 +24°C° 0 mm 1 mps 748 mmHg 64%
19:00 +23°C° 0 mm 1 mps 748 mmHg 69%
20:00 +22°C° 0 mm 1 mps 748 mmHg 71%
21:00 +20°C° 0 mm 1 mps 748 mmHg 72%
22:00 +19°C° 0 mm 1 mps 748 mmHg 74%
23:00 +19°C° 0 mm 1 mps 748 mmHg 76%

28 Junio, Lunes

Tiempo Temperatura Precipitaciones Viento Presión Humedad
00:00 +18°C° 0 mm 1 mps 749 mmHg 78%
01:00 +16°C° 0 mm 0 mps 749 mmHg 79%
02:00 +15°C° 0 mm 0 mps 749 mmHg 80%
03:00 +15°C° 0 mm 0 mps 748 mmHg 80%
04:00 +15°C° 0 mm 0 mps 748 mmHg 81%
05:00 +17°C° 0 mm 0 mps 748 mmHg 77%
06:00 +19°C° 0 mm 0 mps 749 mmHg 72%
07:00 +22°C° 0 mm 1 mps 749 mmHg 67%
08:00 +24°C° 0 mm 1 mps 749 mmHg 63%
09:00 +25°C° 0 mm 1 mps 749 mmHg 59%
10:00 +26°C° 0 mm 1 mps 749 mmHg 54%
11:00 +27°C° 0 mm 1 mps 749 mmHg 51%
12:00 +28°C° 0 mm 1 mps 749 mmHg 48%
13:00 +28°C° 0 mm 1 mps 748 mmHg 45%
14:00 +28°C° 0 mm 1 mps 748 mmHg 45%
15:00 +28°C° 0 mm 1 mps 748 mmHg 45%
16:00 +28°C° 0 mm 1 mps 748 mmHg 45%
17:00 +27°C° 0 mm 1 mps 748 mmHg 52%
18:00 +25°C° 0 mm 1 mps 748 mmHg 59%
19:00 +24°C° 0 mm 1 mps 747 mmHg 65%
20:00 +23°C° 0 mm 1 mps 747 mmHg 68%
21:00 +20°C° 0 mm 2 mps 747 mmHg 70%
22:00 +19°C° 0 mm 2 mps 747 mmHg 72%
23:00 +18°C° 0 mm 2 mps 747 mmHg 74%

29 Junio, Martes

Tiempo Temperatura Precipitaciones Viento Presión Humedad
00:00 +18°C° 0 mm 2 mps 747 mmHg 76%
01:00 +18°C° 0 mm 1 mps 747 mmHg 77%
02:00 +18°C° 0 mm 1 mps 747 mmHg 79%
03:00 +18°C° 0 mm 1 mps 747 mmHg 80%
04:00 +18°C° 0 mm 1 mps 747 mmHg 81%
05:00 +19°C° 0 mm 2 mps 747 mmHg 75%
06:00 +21°C° 0 mm 2 mps 747 mmHg 70%
07:00 +24°C° 0 mm 2 mps 747 mmHg 64%
08:00 +25°C° 0 mm 3 mps 746 mmHg 59%
09:00 +26°C° 0 mm 3 mps 746 mmHg 54%
10:00 +28°C° 0 mm 4 mps 746 mmHg 49%
11:00 +29°C° 0 mm 3 mps 746 mmHg 48%
12:00 +29°C° 0 mm 3 mps 745 mmHg 47%
13:00 +30°C° 0 mm 3 mps 745 mmHg 46%
14:00 +30°C° 0 mm 2 mps 745 mmHg 46%
15:00 +30°C° 0 mm 2 mps 745 mmHg 46%
16:00 +30°C° 0 mm 2 mps 744 mmHg 46%
17:00 +29°C° 0 mm 2 mps 744 mmHg 54%
18:00 +27°C° 0 mm 2 mps 744 mmHg 62%
19:00 +26°C° 0 mm 3 mps 744 mmHg 70%
20:00 +24°C° 0.1 mm 2 mps 744 mmHg 74%
21:00 +23°C° 0.1 mm 2 mps 744 mmHg 77%
22:00 +21°C° 0.1 mm 2 mps 744 mmHg 80%
23:00 +20°C° 0 mm 2 mps 744 mmHg 83%

30 Junio, Miércoles

Tiempo Temperatura Precipitaciones Viento Presión Humedad
00:00 +20°C° 0 mm 2 mps 744 mmHg 85%
01:00 +19°C° 0 mm 2 mps 743 mmHg 88%
02:00 +19°C° 0 mm 2 mps 743 mmHg 89%
03:00 +19°C° 0 mm 2 mps 743 mmHg 90%
04:00 +19°C° 0 mm 2 mps 743 mmHg 91%
05:00 +21°C° 0 mm 2 mps 743 mmHg 85%
06:00 +24°C° 0 mm 2 mps 742 mmHg 79%
07:00 +26°C° 0 mm 1 mps 742 mmHg 73%
08:00 +27°C° 0 mm 1 mps 742 mmHg 68%
09:00 +29°C° 0 mm 1 mps 742 mmHg 63%
10:00 +31°C° 0 mm 1 mps 742 mmHg 58%
11:00 +31°C° 0 mm 1 mps 742 mmHg 55%
12:00 +32°C° 0 mm 1 mps 742 mmHg 52%
13:00 +34°C° 0 mm 2 mps 741 mmHg 49%
14:00 +30°C° 1.6 mm 3 mps 742 mmHg 61%
15:00 +26°C° 1.6 mm 4 mps 742 mmHg 73%
16:00 +22°C° 1.6 mm 5 mps 742 mmHg 84%
17:00 +21°C° 2.9 mm 4 mps 742 mmHg 87%
18:00 +21°C° 2.9 mm 2 mps 743 mmHg 90%
19:00 +21°C° 2.9 mm 1 mps 743 mmHg 93%
20:00 +21°C° 0 mm 1 mps 743 mmHg 93%
21:00 +19°C° 0 mm 2 mps 743 mmHg 93%
22:00 +19°C° 0 mm 2 mps 743 mmHg 94%
23:00 +19°C° 0 mm 2 mps 743 mmHg 94%
Mostrar más

Necesitamos Su Consentimiento

Meteoprog y nuestros Proveedores de Servicios pueden almacenar y acceder a sus datos personales como cookies, identificadores de dispositivo u otras tecnologías similares de su dispositivo y procesar dichos datos para personalizar contenido y anuncios, además de ofrecer funciones de redes sociales y analizar el tráfico.

  • Almacenar y/o acceder a información en su dispositivo

    Se puede almacenar o acceder a cookies, identificadores de dispositivo u otra información de su dispositivo para los fines anteriormente indicados.

  • Anuncios y contenido personalizados, medición de anuncios y contenido, percepciones del público, y desarrollo de productos

    Los anuncios y el contenido pueden personalizarse en base a su perfil. Se pueden añadir más datos para personalizar mejor los anuncios y contenidos. Se puede medir el rendimiento de los anuncios y contenidos. Se puede obtener la percepción sobre el público que ha visto los anuncios y contenidos. Dichos datos pueden usarse para desarrollar o mejorar la experiencia del usuario, sistemas y software.

Al hacer clic en ‘Estoy De Acuerdo’ usted permitirá el uso de las cookies, identificadores de dispositivo, balizas web u otras tecnologías similares indicadas. Su configuración puede cambiarse desde el navegador de su dispositivo.

Para ciertos fines, los intereses legítimos pueden ser considerados por encima del consentimiento. Puede leer más sobre ello en nuestra Política de Privacidad y Cookies.